| time (UTC) | temp F | wind direction | speed MPH | gust MPH | rain 1hr in | rain 24hr in | rain mn in | humidity % | barometer mb |
| 20260509171846 | 66 | 71 | 1.0 | 4.0 | 0.00 | 0.00 | 0.00 | 65 | 1021.5 |
| 20260509171343 | 65 | 78 | 0.0 | 5.0 | 0.00 | 0.00 | 0.00 | 70 | 1021.6 |
| 20260509170837 | 64 | 256 | 2.0 | 5.0 | 0.00 | 0.00 | 0.00 | 69 | 1021.7 |
| 20260509170357 | 63 | 107 | 1.0 | 4.0 | 0.00 | 0.00 | 0.00 | 69 | 1021.8 |
| 20260509165849 | 64 | 56 | 2.0 | 4.0 | 0.00 | 0.00 | 0.00 | 68 | 1021.7 |
| 20260509165345 | 65 | 77 | 1.0 | 2.0 | 0.00 | 0.00 | 0.00 | 68 | 1021.8 |
| 20260509164841 | 64 | 293 | 1.0 | 3.0 | 0.00 | 0.00 | 0.00 | 68 | 1022.0 |
| 20260509164331 | 64 | 84 | 0.0 | 2.0 | 0.00 | 0.00 | 0.00 | 69 | 1022.1 |
| 20260509163857 | 63 | 236 | 1.0 | 2.0 | 0.00 | 0.00 | 0.00 | 69 | 1022.2 |
| 20260509163354 | 63 | 127 | 0.0 | 3.0 | 0.00 | 0.00 | 0.00 | 71 | 1022.3 |
| 20260509162831 | 62 | 304 | 1.0 | 3.0 | 0.00 | 0.00 | 0.00 | 72 | 1022.4 |
| 20260509162347 | 62 | 68 | 1.0 | 2.0 | 0.00 | 0.00 | 0.00 | 72 | 1022.4 |
| 20260509161838 | 62 | 274 | 0.0 | 1.0 | 0.00 | 0.00 | 0.00 | 72 | 1022.4 |
| 20260509161405 | 62 | 75 | 0.0 | 2.0 | 0.00 | 0.00 | 0.00 | 72 | 1022.4 |
| 20260509160841 | 61 | 74 | 1.0 | 4.0 | 0.00 | 0.00 | 0.00 | 75 | 1022.6 |
| 20260509160337 | 60 | 288 | 2.0 | 4.0 | 0.00 | 0.00 | 0.00 | 75 | 1022.6 |
| 20260509155856 | 60 | 77 | 1.0 | 3.0 | 0.00 | 0.00 | 0.00 | 75 | 1022.5 |
| 20260509155332 | 59 | 252 | 0.0 | 1.0 | 0.00 | 0.00 | 0.00 | 80 | 1022.4 |
| 20260509154831 | 58 | 270 | 0.0 | 1.0 | 0.00 | 0.00 | 0.00 | 78 | 1022.5 |
| 20260509154346 | 58 | 232 | 0.0 | 1.0 | 0.00 | 0.00 | 0.00 | 79 | 1022.5 |
| 20260509153911 | 57 | 245 | 0.0 | 3.0 | 0.00 | 0.00 | 0.00 | 79 | 1022.5 |
| 20260509153342 | 57 | 193 | 0.0 | 3.0 | 0.00 | 0.00 | 0.00 | 79 | 1022.7 |
| 20260509152910 | 57 | 240 | 0.0 | 2.0 | 0.00 | 0.00 | 0.00 | 81 | 1022.8 |
| 20260509152343 | 57 | 225 | 0.0 | 2.0 | 0.00 | 0.00 | 0.00 | 79 | 1022.9 |
| 20260509151842 | 57 | 236 | 0.0 | 1.0 | 0.00 | 0.00 | 0.00 | 79 | 1022.8 |
| 20260509151341 | 56 | 165 | 0.0 | 2.0 | 0.00 | 0.00 | 0.00 | 81 | 1023.0 |
| 20260509150831 | 56 | 206 | 1.0 | 2.0 | 0.00 | 0.00 | 0.00 | 80 | 1023.1 |
| 20260509150336 | 56 | 252 | 0.0 | 0.0 | 0.00 | 0.00 | 0.00 | 81 | 1023.1 |
| 20260509145834 | 55 | 257 | 0.0 | 0.0 | 0.00 | 0.00 | 0.00 | 81 | 1023.0 |
| 20260509145332 | 56 | 226 | 0.0 | 0.0 | 0.00 | 0.00 | 0.00 | 78 | 1023.0 |
| 20260509144843 | 57 | 114 | 0.0 | 0.0 | 0.00 | 0.00 | 0.00 | 79 | 1023.0 |
| 20260509144340 | 56 | 113 | 0.0 | 1.0 | 0.00 | 0.00 | 0.00 | 81 | 1022.9 |
| 20260509143858 | 56 | 117 | 0.0 | 1.0 | 0.00 | 0.00 | 0.00 | 82 | 1022.9 |
| 20260509143357 | 55 | 122 | 0.0 | 1.0 | 0.00 | 0.00 | 0.00 | 82 | 1022.9 |
| 20260509142853 | 53 | 124 | 0.0 | 1.0 | 0.00 | 0.00 | 0.00 | 85 | 1023.0 |
| 20260509142350 | 52 | 87 | 0.0 | 1.0 | 0.00 | 0.00 | 0.00 | 83 | 1023.1 |
| 20260509141848 | 53 | 87 | 0.0 | 0.0 | 0.00 | 0.00 | 0.00 | 81 | 1023.0 |
| 20260509141345 | 53 | 87 | 0.0 | 1.0 | 0.00 | 0.00 | 0.00 | 85 | 1023.0 |
| 20260509140912 | 52 | 87 | 0.0 | 1.0 | 0.00 | 0.00 | 0.00 | 86 | 1022.9 |
| 20260509140344 | 52 | 149 | 0.0 | 0.0 | 0.00 | 0.00 | 0.00 | 85 | 1022.9 |
| 20260509135841 | 52 | 153 | 0.0 | 0.0 | 0.00 | 0.00 | 0.00 | 86 | 1022.9 |
| 20260509135337 | 51 | 153 | 0.0 | 0.0 | 0.00 | 0.00 | 0.00 | 88 | 1022.9 |
| 20260509134835 | 50 | 153 | 0.0 | 0.0 | 0.00 | 0.00 | 0.00 | 89 | 1022.9 |
| 20260509134357 | 49 | 153 | 0.0 | 0.0 | 0.00 | 0.00 | 0.00 | 90 | 1022.8 |
| 20260509133851 | 49 | 153 | 0.0 | 0.0 | 0.00 | 0.00 | 0.00 | 90 | 1022.8 |
| 20260509133348 | 49 | 153 | 0.0 | 0.0 | 0.00 | 0.00 | 0.00 | 91 | 1022.7 |
| 20260509132845 | 48 | 153 | 0.0 | 0.0 | 0.00 | 0.00 | 0.00 | 92 | 1022.8 |
| 20260509132341 | 47 | 154 | 0.0 | 0.0 | 0.00 | 0.00 | 0.00 | 92 | 1022.8 |
| 20260509131839 | 47 | 154 | 0.0 | 0.0 | 0.00 | 0.00 | 0.00 | 92 | 1022.8 |
| 20260509131358 | 47 | 154 | 0.0 | 0.0 | 0.00 | 0.00 | 0.00 | 93 | 1022.8 |
| 20260509130851 | 47 | 146 | 0.0 | 1.0 | 0.00 | 0.00 | 0.00 | 92 | 1022.8 |
| 20260509130408 | 46 | 108 | 0.0 | 1.0 | 0.00 | 0.00 | 0.00 | 92 | 1022.7 |
| 20260509125843 | 46 | 109 | 0.0 | 1.0 | 0.00 | 0.00 | 0.00 | 92 | 1022.8 |
| 20260509125403 | 46 | 109 | 0.0 | 1.0 | 0.00 | 0.00 | 0.00 | 92 | 1022.7 |
| 20260509124832 | 46 | 81 | 0.0 | 0.0 | 0.00 | 0.00 | 0.00 | 92 | 1022.9 |
| 20260509124357 | 46 | 79 | 0.0 | 0.0 | 0.00 | 0.00 | 0.00 | 91 | 1022.9 |
| 20260509123853 | 47 | 79 | 0.0 | 0.0 | 0.00 | 0.00 | 0.00 | 92 | 1022.9 |
| 20260509123350 | 47 | 79 | 0.0 | 0.0 | 0.00 | 0.00 | 0.00 | 92 | 1023.0 |
| 20260509122848 | 47 | 79 | 0.0 | 0.0 | 0.00 | 0.00 | 0.00 | 92 | 1023.0 |
| 20260509122347 | 47 | 79 | 0.0 | 0.0 | 0.00 | 0.00 | 0.00 | 92 | 1022.9 |
| 20260509121840 | 47 | 79 | 0.0 | 0.0 | 0.00 | 0.00 | 0.00 | 91 | 1022.9 |
| 20260509121337 | 47 | 79 | 0.0 | 1.0 | 0.00 | 0.00 | 0.00 | 92 | 1022.8 |
| 20260509120857 | 47 | 81 | 0.0 | 1.0 | 0.00 | 0.00 | 0.00 | 92 | 1022.9 |
| 20260509120333 | 47 | 98 | 0.0 | 0.0 | 0.00 | 0.00 | 0.00 | 91 | 1022.9 |
| 20260509115909 | 47 | 98 | 0.0 | 0.0 | 0.00 | 0.00 | 0.00 | 91 | 1022.9 |
| 20260509115344 | 47 | 98 | 0.0 | 0.0 | 0.00 | 0.00 | 0.00 | 91 | 1023.0 |
| 20260509114910 | 48 | 98 | 0.0 | 1.0 | 0.00 | 0.00 | 0.00 | 91 | 1023.0 |
| 20260509114346 | 48 | 98 | 0.0 | 1.0 | 0.00 | 0.00 | 0.00 | 91 | 1022.9 |
| 20260509113844 | 48 | 96 | 0.0 | 1.0 | 0.00 | 0.00 | 0.00 | 91 | 1023.0 |
| 20260509113339 | 48 | 77 | 0.0 | 0.0 | 0.00 | 0.00 | 0.00 | 91 | 1023.1 |
| 20260509112836 | 48 | 77 | 0.0 | 0.0 | 0.00 | 0.00 | 0.00 | 91 | 1023.2 |
| 20260509112336 | 48 | 77 | 0.0 | 0.0 | 0.00 | 0.00 | 0.00 | 91 | 1023.2 |
| 20260509111833 | 48 | 77 | 0.0 | 0.0 | 0.00 | 0.00 | 0.00 | 91 | 1023.4 |
| 20260509111350 | 48 | 77 | 0.0 | 0.0 | 0.00 | 0.00 | 0.00 | 91 | 1023.4 |
| 20260509110848 | 48 | 77 | 0.0 | 0.0 | 0.00 | 0.00 | 0.00 | 90 | 1023.4 |
| 20260509110414 | 49 | 77 | 0.0 | 0.0 | 0.00 | 0.00 | 0.00 | 90 | 1023.6 |
| 20260509105851 | 49 | 77 | 0.0 | 0.0 | 0.00 | 0.00 | 0.00 | 90 | 1023.6 |
| 20260509105348 | 49 | 77 | 0.0 | 0.0 | 0.00 | 0.00 | 0.00 | 90 | 1023.6 |
| 20260509104846 | 49 | 77 | 0.0 | 0.0 | 0.00 | 0.00 | 0.00 | 89 | 1023.6 |
| 20260509104401 | 49 | 77 | 0.0 | 0.0 | 0.00 | 0.00 | 0.00 | 89 | 1023.5 |
| 20260509103848 | 49 | 77 | 0.0 | 0.0 | 0.00 | 0.00 | 0.00 | 89 | 1023.4 |
| 20260509103343 | 49 | 77 | 0.0 | 0.0 | 0.00 | 0.00 | 0.00 | 89 | 1023.4 |
| 20260509102840 | 50 | 76 | 0.0 | 0.0 | 0.00 | 0.00 | 0.00 | 89 | 1023.4 |
| 20260509102332 | 50 | 77 | 0.0 | 0.0 | 0.00 | 0.00 | 0.00 | 89 | 1023.3 |
| 20260509101859 | 50 | 77 | 0.0 | 0.0 | 0.00 | 0.00 | 0.00 | 88 | 1023.4 |
| 20260509101355 | 50 | 77 | 0.0 | 1.0 | 0.00 | 0.00 | 0.00 | 88 | 1023.4 |
| 20260509100911 | 50 | 70 | 0.0 | 1.0 | 0.00 | 0.00 | 0.00 | 88 | 1023.4 |
| 20260509100354 | 50 | 30 | 0.0 | 0.0 | 0.00 | 0.00 | 0.00 | 88 | 1023.4 |
| 20260509095848 | 50 | 29 | 0.0 | 0.0 | 0.00 | 0.00 | 0.00 | 87 | 1023.5 |
| 20260509095344 | 51 | 30 | 0.0 | 0.0 | 0.00 | 0.00 | 0.00 | 87 | 1023.5 |
| 20260509094911 | 51 | 29 | 0.0 | 0.0 | 0.00 | 0.00 | 0.00 | 86 | 1023.5 |
| 20260509094348 | 51 | 29 | 0.0 | 0.0 | 0.00 | 0.00 | 0.00 | 87 | 1023.6 |
| 20260509093845 | 51 | 29 | 0.0 | 0.0 | 0.00 | 0.00 | 0.00 | 86 | 1023.6 |
| 20260509093344 | 51 | 30 | 0.0 | 0.0 | 0.00 | 0.00 | 0.00 | 86 | 1023.7 |
| 20260509092841 | 52 | 30 | 0.0 | 0.0 | 0.00 | 0.00 | 0.00 | 86 | 1023.6 |
| 20260509092400 | 52 | 29 | 0.0 | 0.0 | 0.00 | 0.00 | 0.00 | 85 | 1023.7 |
| 20260509091836 | 52 | 29 | 0.0 | 0.0 | 0.00 | 0.00 | 0.00 | 84 | 1023.8 |
| 20260509091332 | 53 | 29 | 0.0 | 1.0 | 0.00 | 0.00 | 0.00 | 84 | 1023.9 |
| 20260509090845 | 53 | 30 | 0.0 | 1.0 | 0.00 | 0.00 | 0.00 | 84 | 1023.8 |
| 20260509090342 | 53 | 12 | 0.0 | 1.0 | 0.00 | 0.00 | 0.00 | 83 | 1023.9 |
| 20260509085910 | 53 | 14 | 0.0 | 1.0 | 0.00 | 0.00 | 0.00 | 83 | 1023.9 |
| 20260509084832 | 54 | 65 | 0.0 | 1.0 | 0.00 | 0.00 | 0.00 | 82 | 1024.1 |
| 20260509084348 | 54 | 66 | 0.0 | 1.0 | 0.00 | 0.00 | 0.00 | 81 | 1024.1 |
| 20260509083845 | 55 | 89 | 0.0 | 1.0 | 0.00 | 0.00 | 0.00 | 80 | 1024.1 |
| 20260509083343 | 55 | 72 | 0.0 | 3.0 | 0.00 | 0.00 | 0.00 | 80 | 1024.1 |
| 20260509082841 | 55 | 52 | 1.0 | 3.0 | 0.00 | 0.00 | 0.00 | 80 | 1024.1 |
| 20260509082335 | 55 | 53 | 0.0 | 4.0 | 0.00 | 0.00 | 0.00 | 79 | 1024.2 |
| 20260509081832 | 55 | 61 | 1.0 | 4.0 | 0.00 | 0.00 | 0.00 | 79 | 1024.3 |
| 20260509081349 | 55 | 60 | 1.0 | 3.0 | 0.00 | 0.00 | 0.00 | 80 | 1024.4 |
| 20260509080846 | 55 | 274 | 0.0 | 0.0 | 0.00 | 0.00 | 0.00 | 79 | 1024.4 |
| 20260509080413 | 55 | 273 | 0.0 | 1.0 | 0.00 | 0.00 | 0.00 | 79 | 1024.4 |
| 20260509075849 | 55 | 1 | 0.0 | 0.0 | 0.00 | 0.00 | 0.00 | 78 | 1024.4 |
| 20260509075348 | 56 | 1 | 0.0 | 0.0 | 0.00 | 0.00 | 0.00 | 78 | 1024.4 |
| 20260509074906 | 56 | 1 | 0.0 | 0.0 | 0.00 | 0.00 | 0.00 | 78 | 1024.3 |
| 20260509074342 | 56 | 1 | 0.0 | 3.0 | 0.00 | 0.00 | 0.00 | 77 | 1024.4 |
| 20260509073849 | 56 | 1 | 0.0 | 3.0 | 0.00 | 0.00 | 0.00 | 77 | 1024.3 |
| 20260509073401 | 56 | 74 | 0.0 | 0.0 | 0.00 | 0.00 | 0.00 | 77 | 1024.4 |
| 20260509072837 | 56 | 74 | 0.0 | 0.0 | 0.00 | 0.00 | 0.00 | 77 | 1024.4 |
| 20260509072336 | 56 | 74 | 0.0 | 0.0 | 0.00 | 0.00 | 0.00 | 77 | 1024.3 |
| 20260509071855 | 57 | 74 | 0.0 | 0.0 | 0.00 | 0.00 | 0.00 | 76 | 1024.4 |
| 20260509071420 | 57 | 73 | 0.0 | 0.0 | 0.00 | 0.00 | 0.00 | 75 | 1024.3 |
| 20260509070857 | 57 | 75 | 0.0 | 0.0 | 0.00 | 0.00 | 0.00 | 75 | 1024.4 |
| 20260509070334 | 58 | 226 | 0.0 | 0.0 | 0.00 | 0.00 | 0.00 | 74 | 1024.3 |
| 20260509065851 | 58 | 248 | 0.0 | 1.0 | 0.00 | 0.00 | 0.00 | 74 | 1024.3 |
| 20260509065344 | 58 | 247 | 0.0 | 1.0 | 0.00 | 0.00 | 0.00 | 74 | 1024.4 |
| 20260509064849 | 58 | 264 | 0.0 | 0.0 | 0.00 | 0.00 | 0.00 | 74 | 1024.4 |
| 20260509064346 | 58 | 264 | 0.0 | 1.0 | 0.00 | 0.00 | 0.00 | 73 | 1024.3 |
| 20260509063902 | 58 | 265 | 0.0 | 2.0 | 0.00 | 0.00 | 0.00 | 73 | 1024.3 |
| 20260509063341 | 58 | 266 | 1.0 | 2.0 | 0.00 | 0.00 | 0.00 | 73 | 1024.3 |
| 20260509062839 | 59 | 213 | 0.0 | 3.0 | 0.00 | 0.00 | 0.00 | 72 | 1024.2 |
| 20260509062336 | 59 | 219 | 0.0 | 3.0 | 0.00 | 0.00 | 0.00 | 72 | 1024.3 |
| 20260509061852 | 59 | 262 | 0.0 | 1.0 | 0.00 | 0.00 | 0.00 | 72 | 1024.2 |
| 20260509061357 | 59 | 238 | 0.0 | 1.0 | 0.00 | 0.00 | 0.00 | 72 | 1024.2 |
| 20260509060849 | 59 | 236 | 0.0 | 3.0 | 0.00 | 0.00 | 0.00 | 71 | 1024.2 |
| 20260509060414 | 59 | 248 | 2.0 | 3.0 | 0.00 | 0.00 | 0.00 | 71 | 1024.2 |
| 20260509055850 | 59 | 214 | 0.0 | 0.0 | 0.00 | 0.00 | 0.00 | 71 | 1024.3 |
| 20260509055345 | 60 | 214 | 0.0 | 1.0 | 0.00 | 0.00 | 0.00 | 70 | 1024.1 |
| 20260509054841 | 60 | 214 | 0.0 | 1.0 | 0.00 | 0.00 | 0.00 | 70 | 1024.1 |
| 20260509054339 | 60 | 233 | 0.0 | 1.0 | 0.00 | 0.00 | 0.00 | 69 | 1024.1 |
| 20260509053836 | 60 | 250 | 0.0 | 3.0 | 0.00 | 0.00 | 0.00 | 68 | 1024.1 |
| 20260509053332 | 61 | 257 | 0.0 | 4.0 | 0.00 | 0.00 | 0.00 | 68 | 1024.1 |
| 20260509052847 | 61 | 232 | 1.0 | 2.0 | 0.00 | 0.00 | 0.00 | 68 | 1024.1 |
| 20260509052340 | 61 | 356 | 0.0 | 2.0 | 0.00 | 0.00 | 0.00 | 67 | 1024.0 |
| 20260509051840 | 61 | 103 | 0.0 | 3.0 | 0.00 | 0.00 | 0.00 | 66 | 1024.1 |
| 20260509051338 | 62 | 58 | 1.0 | 7.0 | 0.00 | 0.00 | 0.00 | 66 | 1023.9 |
| 20260509050836 | 62 | 230 | 1.0 | 7.0 | 0.00 | 0.00 | 0.00 | 66 | 1023.9 |
| 20260509050347 | 62 | 123 | 0.0 | 1.0 | 0.00 | 0.00 | 0.00 | 65 | 1023.9 |
| 20260509045854 | 62 | 231 | 0.0 | 1.0 | 0.00 | 0.00 | 0.00 | 65 | 1023.9 |
| 20260509045350 | 63 | 232 | 0.0 | 1.0 | 0.00 | 0.00 | 0.00 | 64 | 1023.7 |
| 20260509044846 | 63 | 236 | 0.0 | 0.0 | 0.00 | 0.00 | 0.00 | 63 | 1023.8 |
| 20260509044343 | 63 | 236 | 0.0 | 1.0 | 0.00 | 0.00 | 0.00 | 63 | 1023.7 |
| 20260509043839 | 63 | 200 | 0.0 | 1.0 | 0.00 | 0.00 | 0.00 | 63 | 1023.6 |
| 20260509043340 | 63 | 285 | 0.0 | 1.0 | 0.00 | 0.00 | 0.00 | 62 | 1023.5 |
| 20260509042832 | 64 | 285 | 0.0 | 1.0 | 0.00 | 0.00 | 0.00 | 62 | 1023.6 |
| 20260509042348 | 64 | 285 | 0.0 | 1.0 | 0.00 | 0.00 | 0.00 | 62 | 1023.6 |
| 20260509041852 | 64 | 136 | 0.0 | 3.0 | 0.00 | 0.00 | 0.00 | 61 | 1023.5 |
| 20260509041349 | 64 | 76 | 0.0 | 3.0 | 0.00 | 0.00 | 0.00 | 61 | 1023.5 |
| 20260509040906 | 64 | 92 | 0.0 | 1.0 | 0.00 | 0.00 | 0.00 | 61 | 1023.4 |
| 20260509040342 | 64 | 295 | 0.0 | 1.0 | 0.00 | 0.00 | 0.00 | 61 | 1023.4 |
| 20260509035839 | 64 | 297 | 0.0 | 1.0 | 0.00 | 0.00 | 0.00 | 60 | 1023.3 |
| 20260509035336 | 64 | 263 | 0.0 | 3.0 | 0.00 | 0.00 | 0.00 | 60 | 1023.3 |
| 20260509034834 | 64 | 307 | 1.0 | 4.0 | 0.00 | 0.00 | 0.00 | 60 | 1023.2 |
| 20260509034331 | 64 | 78 | 2.0 | 4.0 | 0.00 | 0.00 | 0.00 | 59 | 1023.2 |
| 20260509033914 | 64 | 256 | 0.0 | 4.0 | 0.00 | 0.00 | 0.00 | 59 | 1023.1 |
| 20260509033349 | 65 | 20 | 0.0 | 4.0 | 0.00 | 0.00 | 0.00 | 59 | 1023.1 |
| 20260509032847 | 65 | 264 | 1.0 | 4.0 | 0.00 | 0.00 | 0.00 | 59 | 1023.1 |
| 20260509032345 | 65 | 280 | 2.0 | 3.0 | 0.00 | 0.00 | 0.00 | 58 | 1022.9 |
| 20260509031842 | 65 | 317 | 0.0 | 3.0 | 0.00 | 0.00 | 0.00 | 60 | 1022.9 |
| 20260509031331 | 65 | 84 | 1.0 | 2.0 | 0.00 | 0.00 | 0.00 | 58 | 1022.8 |
| 20260509030858 | 66 | 229 | 0.0 | 2.0 | 0.00 | 0.00 | 0.00 | 58 | 1022.8 |
| 20260509030335 | 66 | 228 | 0.0 | 2.0 | 0.00 | 0.00 | 0.00 | 57 | 1022.8 |
| 20260509025832 | 66 | 257 | 0.0 | 2.0 | 0.00 | 0.00 | 0.00 | 57 | 1022.8 |
| 20260509025405 | 66 | 224 | 0.0 | 2.0 | 0.00 | 0.00 | 0.00 | 57 | 1022.8 |
| 20260509024841 | 66 | 252 | 0.0 | 1.0 | 0.00 | 0.00 | 0.00 | 56 | 1022.6 |
| 20260509024407 | 67 | 231 | 0.0 | 2.0 | 0.00 | 0.00 | 0.00 | 54 | 1022.6 |
| 20260509023844 | 67 | 158 | 1.0 | 2.0 | 0.00 | 0.00 | 0.00 | 54 | 1022.6 |
| 20260509023404 | 67 | 254 | 0.0 | 2.0 | 0.00 | 0.00 | 0.00 | 53 | 1022.6 |
| 20260509022841 | 67 | 235 | 0.0 | 2.0 | 0.00 | 0.00 | 0.00 | 53 | 1022.5 |
| 20260509022332 | 67 | 245 | 0.0 | 2.0 | 0.00 | 0.00 | 0.00 | 53 | 1022.5 |
| 20260509021857 | 67 | 245 | 0.0 | 2.0 | 0.00 | 0.00 | 0.00 | 53 | 1022.5 |
| 20260509021353 | 67 | 281 | 0.0 | 1.0 | 0.00 | 0.00 | 0.00 | 52 | 1022.6 |
| 20260509020907 | 68 | 255 | 0.0 | 1.0 | 0.00 | 0.00 | 0.00 | 52 | 1022.6 |
| 20260509020343 | 68 | 233 | 0.0 | 2.0 | 0.00 | 0.00 | 0.00 | 51 | 1022.6 |
| 20260509015909 | 68 | 237 | 1.0 | 6.0 | 0.00 | 0.00 | 0.00 | 51 | 1022.6 |
| 20260509015345 | 68 | 239 | 0.0 | 6.0 | 0.00 | 0.00 | 0.00 | 51 | 1022.6 |
| 20260509014841 | 68 | 298 | 0.0 | 3.0 | 0.00 | 0.00 | 0.00 | 51 | 1022.7 |
| 20260509014339 | 68 | 267 | 1.0 | 2.0 | 0.00 | 0.00 | 0.00 | 50 | 1022.7 |
| 20260509013858 | 69 | 273 | 1.0 | 3.0 | 0.00 | 0.00 | 0.00 | 50 | 1022.6 |
| 20260509013355 | 69 | 84 | 0.0 | 3.0 | 0.00 | 0.00 | 0.00 | 50 | 1022.6 |
| 20260509012852 | 70 | 18 | 0.0 | 6.0 | 0.00 | 0.00 | 0.00 | 50 | 1022.6 |
| 20260509012349 | 70 | 274 | 2.0 | 6.0 | 0.00 | 0.00 | 0.00 | 49 | 1022.7 |
| 20260509011841 | 70 | 243 | 2.0 | 4.0 | 0.00 | 0.00 | 0.00 | 48 | 1022.8 |
| 20260509011407 | 71 | 278 | 0.0 | 2.0 | 0.00 | 0.00 | 0.00 | 50 | 1022.8 |
| 20260509010844 | 70 | 142 | 1.0 | 4.0 | 0.00 | 0.00 | 0.00 | 50 | 1022.8 |
| 20260509010343 | 70 | 291 | 1.0 | 4.0 | 0.00 | 0.00 | 0.00 | 48 | 1022.8 |
| 20260509005840 | 71 | 237 | 1.0 | 5.0 | 0.00 | 0.00 | 0.00 | 48 | 1022.8 |
| 20260509005401 | 71 | 160 | 2.0 | 5.0 | 0.00 | 0.00 | 0.00 | 50 | 1022.9 |
| 20260509004838 | 70 | 264 | 1.0 | 3.0 | 0.00 | 0.00 | 0.00 | 50 | 1022.9 |
| 20260509004337 | 70 | 240 | 2.0 | 5.0 | 0.00 | 0.00 | 0.00 | 50 | 1022.9 |
| 20260509003835 | 70 | 343 | 2.0 | 5.0 | 0.00 | 0.00 | 0.00 | 51 | 1023.0 |
| 20260509003332 | 69 | 236 | 1.0 | 4.0 | 0.00 | 0.00 | 0.00 | 50 | 1022.9 |
| 20260509002844 | 70 | 264 | 3.0 | 4.0 | 0.00 | 0.00 | 0.00 | 49 | 1023.0 |
| 20260509002411 | 70 | 296 | 0.0 | 2.0 | 0.00 | 0.00 | 0.00 | 50 | 1023.0 |
| 20260509001846 | 69 | 266 | 1.0 | 4.0 | 0.00 | 0.00 | 0.00 | 50 | 1023.1 |
| 20260509001344 | 69 | 241 | 2.0 | 5.0 | 0.00 | 0.00 | 0.00 | 51 | 1023.1 |
| 20260509000902 | 69 | 208 | 2.0 | 5.0 | 0.00 | 0.00 | 0.00 | 51 | 1023.1 |
| 20260509000341 | 69 | 240 | 2.0 | 6.0 | 0.00 | 0.00 | 0.00 | 52 | 1023.1 |
| 20260508235837 | 70 | 228 | 3.0 | 6.0 | 0.00 | 0.00 | 0.00 | 51 | 1023.2 |
| 20260508235333 | 69 | 260 | 1.0 | 4.0 | 0.00 | 0.00 | 0.00 | 53 | 1023.1 |
| 20260508234850 | 68 | 124 | 1.0 | 5.0 | 0.00 | 0.00 | 0.00 | 52 | 1023.1 |
| 20260508234342 | 69 | 281 | 2.0 | 5.0 | 0.00 | 0.00 | 0.00 | 51 | 1023.1 |
| 20260508233839 | 69 | 226 | 2.0 | 6.0 | 0.00 | 0.00 | 0.00 | 51 | 1023.1 |
| 20260508233346 | 69 | 246 | 2.0 | 6.0 | 0.00 | 0.00 | 0.00 | 51 | 1023.1 |
| 20260508232844 | 69 | 234 | 3.0 | 6.0 | 0.00 | 0.00 | 0.00 | 50 | 1023.3 |
| 20260508232340 | 69 | 260 | 2.0 | 5.0 | 0.00 | 0.00 | 0.00 | 50 | 1023.1 |
| 20260508231838 | 69 | 264 | 1.0 | 5.0 | 0.00 | 0.00 | 0.00 | 51 | 1023.2 |
| 20260508231335 | 70 | 271 | 2.0 | 4.0 | 0.00 | 0.00 | 0.00 | 50 | 1023.1 |
| 20260508230832 | 70 | 265 | 2.0 | 4.0 | 0.00 | 0.00 | 0.00 | 50 | 1023.1 |
| 20260508230358 | 70 | 203 | 1.0 | 4.0 | 0.00 | 0.00 | 0.00 | 51 | 1023.1 |
| 20260508225855 | 69 | 335 | 1.0 | 4.0 | 0.00 | 0.00 | 0.00 | 51 | 1023.2 |
| 20260508225351 | 68 | 223 | 1.0 | 5.0 | 0.00 | 0.00 | 0.00 | 52 | 1023.1 |
| 20260508224848 | 68 | 266 | 2.0 | 4.0 | 0.00 | 0.00 | 0.00 | 51 | 1023.1 |
| 20260508224341 | 67 | 266 | 1.0 | 6.0 | 0.00 | 0.00 | 0.00 | 52 | 1023.1 |
| 20260508223838 | 68 | 261 | 2.0 | 6.0 | 0.00 | 0.00 | 0.00 | 50 | 1023.2 |
| 20260508223336 | 69 | 219 | 1.0 | 4.0 | 0.00 | 0.00 | 0.00 | 51 | 1023.3 |
| 20260508222854 | 67 | 281 | 1.0 | 7.0 | 0.00 | 0.00 | 0.00 | 52 | 1023.3 |
| 20260508222349 | 67 | 194 | 3.0 | 7.0 | 0.00 | 0.00 | 0.00 | 51 | 1023.4 |
| 20260508221848 | 68 | 272 | 1.0 | 7.0 | 0.00 | 0.00 | 0.00 | 52 | 1023.5 |
| 20260508221405 | 67 | 278 | 2.0 | 8.0 | 0.00 | 0.00 | 0.00 | 51 | 1023.4 |
| 20260508220851 | 66 | 131 | 0.0 | 5.0 | 0.00 | 0.00 | 0.00 | 54 | 1023.4 |
| 20260508220349 | 66 | 84 | 2.0 | 7.0 | 0.00 | 0.00 | 0.00 | 52 | 1023.4 |
| 20260508215846 | 67 | 234 | 3.0 | 7.0 | 0.00 | 0.00 | 0.00 | 50 | 1023.5 |
| 20260508215344 | 67 | 26 | 1.0 | 6.0 | 0.00 | 0.00 | 0.00 | 52 | 1023.5 |
| 20260508214838 | 66 | 297 | 3.0 | 6.0 | 0.00 | 0.00 | 0.00 | 52 | 1023.4 |
| 20260508214337 | 66 | 222 | 2.0 | 6.0 | 0.00 | 0.00 | 0.00 | 52 | 1023.4 |
| 20260508213857 | 66 | 253 | 0.0 | 5.0 | 0.00 | 0.00 | 0.00 | 53 | 1023.5 |
| 20260508213332 | 65 | 217 | 1.0 | 5.0 | 0.00 | 0.00 | 0.00 | 51 | 1023.5 |
| 20260508212850 | 67 | 217 | 3.0 | 5.0 | 0.00 | 0.00 | 0.00 | 50 | 1023.6 |
| 20260508212354 | 66 | 285 | 2.0 | 6.0 | 0.00 | 0.00 | 0.00 | 53 | 1023.5 |
| 20260508211850 | 66 | 163 | 2.0 | 6.0 | 0.00 | 0.00 | 0.00 | 50 | 1023.6 |
| 20260508211348 | 66 | 234 | 3.0 | 6.0 | 0.00 | 0.00 | 0.00 | 53 | 1023.6 |
| 20260508210845 | 66 | 215 | 1.0 | 5.0 | 0.00 | 0.00 | 0.00 | 53 | 1023.5 |
| 20260508210401 | 64 | 230 | 1.0 | 7.0 | 0.00 | 0.00 | 0.00 | 54 | 1023.6 |
| 20260508205836 | 65 | 253 | 2.0 | 5.0 | 0.00 | 0.00 | 0.00 | 54 | 1023.6 |
| 20260508205347 | 64 | 75 | 0.0 | 5.0 | 0.00 | 0.00 | 0.00 | 54 | 1023.6 |
| 20260508204843 | 64 | 270 | 1.0 | 5.0 | 0.00 | 0.00 | 0.00 | 54 | 1023.6 |
| 20260508204407 | 64 | 268 | 3.0 | 5.0 | 0.00 | 0.00 | 0.00 | 53 | 1023.6 |
| 20260508203845 | 64 | 238 | 0.0 | 4.0 | 0.00 | 0.00 | 0.00 | 55 | 1023.6 |
| 20260508203341 | 64 | 228 | 2.0 | 10.0 | 0.00 | 0.00 | 0.00 | 54 | 1023.6 |
| 20260508202831 | 64 | 283 | 2.0 | 10.0 | 0.00 | 0.00 | 0.00 | 56 | 1023.8 |
| 20260508202358 | 64 | 91 | 2.0 | 5.0 | 0.00 | 0.00 | 0.00 | 54 | 1023.7 |
| 20260508201835 | 64 | 36 | 1.0 | 6.0 | 0.00 | 0.00 | 0.00 | 56 | 1023.7 |
| 20260508201333 | 65 | 234 | 3.0 | 8.0 | 0.00 | 0.00 | 0.00 | 54 | 1023.8 |
| 20260508200845 | 64 | 185 | 3.0 | 8.0 | 0.00 | 0.00 | 0.00 | 54 | 1023.7 |
| 20260508200342 | 64 | 245 | 1.0 | 5.0 | 0.00 | 0.00 | 0.00 | 58 | 1023.7 |
| 20260508195914 | 63 | 115 | 0.0 | 8.0 | 0.00 | 0.00 | 0.00 | 56 | 1023.7 |
| 20260508195411 | 62 | 162 | 1.0 | 8.0 | 0.00 | 0.00 | 0.00 | 58 | 1023.9 |
| 20260508194916 | 63 | 120 | 2.0 | 7.0 | 0.00 | 0.00 | 0.00 | 56 | 1023.9 |
| 20260508194352 | 62 | 131 | 2.0 | 7.0 | 0.00 | 0.00 | 0.00 | 57 | 1023.8 |
| 20260508193848 | 62 | 245 | 1.0 | 5.0 | 0.00 | 0.00 | 0.00 | 59 | 1023.8 |
| 20260508193347 | 62 | 226 | 1.0 | 5.0 | 0.00 | 0.00 | 0.00 | 60 | 1023.8 |
| 20260508192842 | 61 | 189 | 2.0 | 4.0 | 0.00 | 0.00 | 0.00 | 59 | 1023.8 |
| 20260508192356 | 61 | 266 | 2.0 | 6.0 | 0.00 | 0.00 | 0.00 | 60 | 1023.8 |
| 20260508191831 | 61 | 211 | 3.0 | 6.0 | 0.00 | 0.00 | 0.00 | 60 | 1023.8 |
| 20260508191348 | 60 | 256 | 2.0 | 4.0 | 0.00 | 0.00 | 0.00 | 62 | 1023.9 |
| 20260508190845 | 60 | 266 | 1.0 | 3.0 | 0.00 | 0.00 | 0.00 | 60 | 1023.9 |
| 20260508190349 | 60 | 285 | 2.0 | 4.0 | 0.00 | 0.00 | 0.00 | 61 | 1023.9 |
| 20260508185906 | 60 | 216 | 1.0 | 7.0 | 0.00 | 0.00 | 0.00 | 62 | 1023.9 |
| 20260508185343 | 60 | 288 | 3.0 | 9.0 | 0.00 | 0.00 | 0.00 | 62 | 1023.9 |
| 20260508184903 | 59 | 266 | 2.0 | 4.0 | 0.00 | 0.00 | 0.00 | 63 | 1023.9 |
| 20260508184348 | 60 | 246 | 2.0 | 4.0 | 0.00 | 0.00 | 0.00 | 62 | 1023.9 |
| 20260508183853 | 60 | 241 | 1.0 | 6.0 | 0.00 | 0.00 | 0.00 | 62 | 1023.9 |
| 20260508183348 | 60 | 243 | 2.0 | 7.0 | 0.00 | 0.00 | 0.00 | 62 | 1023.9 |
| 20260508182905 | 60 | 198 | 1.0 | 8.0 | 0.00 | 0.00 | 0.00 | 65 | 1023.8 |
| 20260508182341 | 59 | 283 | 1.0 | 8.0 | 0.00 | 0.00 | 0.00 | 63 | 1023.9 |
| 20260508181902 | 60 | 288 | 3.0 | 6.0 | 0.00 | 0.00 | 0.00 | 61 | 1023.8 |
| 20260508181400 | 60 | 288 | 3.0 | 6.0 | 0.00 | 0.00 | 0.00 | 61 | 1023.7 |
| 20260508180837 | 59 | 297 | 4.0 | 6.0 | 0.00 | 0.00 | 0.00 | 63 | 1023.7 |
| 20260508180335 | 59 | 266 | 2.0 | 6.0 | 0.00 | 0.00 | 0.00 | 63 | 1023.7 |
| 20260508175847 | 58 | 217 | 3.0 | 5.0 | 0.00 | 0.00 | 0.00 | 64 | 1023.7 |
| 20260508175343 | 58 | 252 | 3.0 | 5.0 | 0.00 | 0.00 | 0.00 | 66 | 1023.6 |
| 20260508174841 | 58 | 80 | 1.0 | 6.0 | 0.00 | 0.00 | 0.00 | 69 | 1023.6 |
| 20260508174341 | 57 | 273 | 2.0 | 6.0 | 0.00 | 0.00 | 0.00 | 68 | 1023.5 |
| 20260508173837 | 58 | 260 | 2.0 | 6.0 | 0.00 | 0.00 | 0.00 | 67 | 1023.5 |
| 20260508173334 | 59 | 276 | 2.0 | 5.0 | 0.00 | 0.00 | 0.00 | 67 | 1023.3 |
| 20260508172831 | 58 | 219 | 2.0 | 5.0 | 0.00 | 0.00 | 0.00 | 68 | 1023.3 |
| 20260508172355 | 58 | 207 | 2.0 | 4.0 | 0.00 | 0.00 | 0.00 | 69 | 1023.3 |